Powrót do katalogu

COSMOS 931 DEB

LostHEO
NORAD 26760·DEBRIS·🇷🇺 Russia

Wystrzelony Jul 20, 1977 z Plesetsk Cosmodrome

Loading…

Następne Przeloty (najbliższe 24 godziny)

TLE

NieaktualneSource: Space-Track

Epoka: Sep 19, 2021, 22:15 UTC

1 26760U 77068H   21262.92741300 -.00000191  00000-0  00000+0 0  9999
2 26760  63.1060 233.6899 6782872  42.9314 353.4042  2.01296024149867

Śledź COSMOS 931 DEB w czasie rzeczywistym z AllMySat

Download on the App Store